Location: Praha
(50.0830°N, 14.4670°E)
Time: 17:29:07
(UTC+02:00)

ISS - Pass Details

Date: 19 May 2020
Orbit: 417 x 420 km, 51.6° (Epoch: 26 May)

Event Time Altitude Azimuth Distance (km) Brightness Sun altitude
Rises 22:15:41 0° 251° (WSW) 2,360 0.3 -11.2°
Reaches altitude 10° 22:17:47 10° 251° (WSW) 1,498 -0.7 -11.4°
Maximum altitude 22:21:09 87° 162° (SSE) 425 -3.8 -11.8°
Drops below altitude 10° 22:24:32 10° 75° (ENE) 1,504 -1.2 -12.1°
Sets 22:26:38 0° 75° (ENE) 2,370 -0.1 -12.3°
